Regional Weather Roundup
Issued by NWS

Home | Current Version | Previous Version | Text Only | Print | Product List | Glossary Off
Versions: 1 2 3 4 5 6 7 8 9 10 11 12 13 14 15 16 17 18 19 20 21 22 23 24 25 26 27 28 29 30 31 32 33 34 35 36 37 38 39 40 41 42 43 44 45 46 47 48 49 50

000
ASUS43 KLMK 200410
RWRKY
KENTUCKY REGIONAL WEATHER ROUNDUP
NATIONAL WEATHER SERVICE LOUISVILLE KY
1200 AM EDT SAT SEP 20 2014

NOTE "FAIR" INDICATES FEW OR NO CLOUDS BELOW 12,000 FEET
WITH NO SIGNIFICANT WEATHER AND/OR OBSTRUCTIONS TO VISIBILITY.

KYZ001>023-026-027-061>063-070>075-200500-
WESTERN AND SOUTH CENTRAL KENTUCKY

CITY           SKY/WX    TMP DP  RH WIND       PRES   REMARKS
PADUCAH        CLEAR     65  60  84 CALM      30.04R
HENDERSON      CLEAR     57  54  88 CALM      30.05R
OWENSBORO      CLEAR     64  59  84 CALM      30.05S
HOPKINSVILLE   CLEAR     68  65  92 CALM      30.05S
BOWLING GREEN  PTCLDY    64  59  83 CALM      30.07S
GLASGOW        PTCLDY    63  60  89 CALM      30.08S
$$

KYZ024-025-028>034-038-045-046-053-200500-
NORTH CENTRAL KENTUCKY

CITY           SKY/WX    TMP DP  RH WIND       PRES   REMARKS
LOUISVILLE/SDF MOCLDY    68  56  65 CALM      30.07S
LOUISVILLE/LOU CLEAR     64  56  75 CALM      30.08R
FORT KNOX      CLEAR     61  57  88 E1        30.07R
$$

KYZ035>037-039>044-047>052-055>060-089>105-200500-
NORTHEAST KENTUCKY

CITY           SKY/WX    TMP DP  RH WIND       PRES   REMARKS
LEXINGTON      CLEAR     65  57  75 SE6       30.10S
COVINGTON      PTCLDY    58  52  80 CALM      30.09S
FRANKFORT      CLEAR     58  54  86 CALM      30.09R
$$

KYZ054-064>069-076>088-106>120-200500-
SOUTHEAST KENTUCKY

CITY           SKY/WX    TMP DP  RH WIND       PRES   REMARKS
JACKSON        CLEAR     66  62  87 S3        30.14R
LONDON         CLEAR     65  59  81 CALM      30.13R
SOMERSET       CLEAR     61  61 100 CALM      30.12R
MIDDLESBORO    PTCLDY    64  61  91 CALM      30.16S
MONTICELLO     CLEAR     60  59  97 CALM      30.12S
$$




USA.gov is the U.S. government's official web portal to all federal, state and local government web resources and services.